{"data":{"norad_id":64846,"intl_designator":"2025-152E","name":"STARLINK-34736","alt_names":[],"object_type":"PAYLOAD","status":"ACTIVE","operator":null,"country":"US","launch_date":"2025-07-19","launch_site_code":"AFWTR","launch_vehicle":null,"mission":null,"orbit_class":"UNKNOWN","rcs_meters":null,"size_class":null,"mass_kg":null,"dimensions":null,"purposes":["comms"],"wikipedia_slug":null,"has_3d_model":false,"image_url":null,"decayed_at":null,"tle_current":{"epoch":"2026-09-20T13:17:35.514528Z","epoch_age_seconds":119674,"freshness":"FRESH","line1":"1 64846U 25152E   26263.55388327  .00008610  00000+0  26861-3 0  9993","line2":"2 64846  97.2834 114.1258 0001471  83.0210 277.1200 15.33456791 64836","mean_motion":15.33456791,"eccentricity":0.0001471,"inclination_deg":97.2834,"raan_deg":114.1258,"arg_perigee_deg":83.021,"mean_anomaly_deg":277.12,"bstar":0.00026861,"rev_number":6483,"period_min":93.905482596673,"perigee_km":464.50139278942,"apogee_km":466.51479317577,"semimajor_km":6843.6450929826,"source":"CELESTRAK","updated_at":"2026-09-21T09:00:35.449130Z"}}}